When you browse on this site, cookies collect data to enhance your experience and personalize the content and advertising you see.
Visit our Privacy Policy to learn more. By continuing to use the site, you agree to this use of cookies and data.
  • In Denmark
  • List of Countries
  • For 7 days
  • Water Temperature
  • Satellite Maps
  • Weather Map
  • Weather Widgets
  • user-avatar
    Login

    Hourly Weather Bielowice

    Today, 20 July, Saturday

    Time Temperature Precipitation Wind Pressure Humidity
    00:00 +18°C° 0 mm 1 mps 745 mmHg 86%
    01:00 +18°C° 0 mm 1 mps 745 mmHg 86%
    02:00 +18°C° 0 mm 1 mps 745 mmHg 86%
    03:00 +16°C° 0 mm 1 mps 745 mmHg 87%
    04:00 +16°C° 0 mm 1 mps 745 mmHg 87%
    05:00 +18°C° 0 mm 1 mps 745 mmHg 83%
    06:00 +20°C° 0 mm 1 mps 745 mmHg 78%
    07:00 +20°C° 0 mm 0 mps 745 mmHg 73%
    08:00 +23°C° 0 mm 1 mps 745 mmHg 68%
    09:00 +25°C° 0 mm 1 mps 745 mmHg 62%
    10:00 +26°C° 0 mm 1 mps 746 mmHg 56%
    11:00 +27°C° 0 mm 1 mps 745 mmHg 54%
    12:00 +28°C° 0 mm 1 mps 745 mmHg 51%
    13:00 +28°C° 0 mm 1 mps 745 mmHg 49%
    14:00 +29°C° 0 mm 1 mps 745 mmHg 48%
    15:00 +29°C° 0 mm 1 mps 745 mmHg 48%
    16:00 +29°C° 0 mm 1 mps 745 mmHg 48%
    17:00 +28°C° 0 mm 1 mps 744 mmHg 53%
    18:00 +27°C° 0 mm 1 mps 744 mmHg 59%
    19:00 +26°C° 0 mm 1 mps 744 mmHg 65%
    20:00 +25°C° 0.2 mm 1 mps 744 mmHg 69%
    21:00 +23°C° 0.2 mm 2 mps 744 mmHg 73%
    22:00 +21°C° 0.2 mm 2 mps 744 mmHg 77%
    23:00 +21°C° 0.7 mm 3 mps 744 mmHg 79%

    Tomorrow, 21 July, Sunday

    Time Temperature Precipitation Wind Pressure Humidity
    00:00 +21°C° 0.7 mm 3 mps 744 mmHg 81%
    01:00 +21°C° 0.7 mm 4 mps 744 mmHg 83%
    02:00 +20°C° 0.2 mm 3 mps 744 mmHg 83%
    03:00 +20°C° 0.2 mm 3 mps 744 mmHg 84%
    04:00 +20°C° 0.2 mm 3 mps 744 mmHg 84%
    05:00 +21°C° 0 mm 3 mps 744 mmHg 82%
    06:00 +22°C° 0 mm 3 mps 745 mmHg 80%
    07:00 +24°C° 0 mm 3 mps 745 mmHg 79%
    08:00 +23°C° 0.3 mm 4 mps 745 mmHg 75%
    09:00 +25°C° 0.3 mm 4 mps 746 mmHg 72%
    10:00 +26°C° 0.3 mm 5 mps 746 mmHg 69%
    11:00 +26°C° 0.9 mm 5 mps 746 mmHg 67%
    12:00 +27°C° 0.9 mm 5 mps 746 mmHg 65%
    13:00 +27°C° 0.9 mm 6 mps 746 mmHg 64%
    14:00 +27°C° 0.3 mm 6 mps 747 mmHg 62%
    15:00 +26°C° 0.3 mm 5 mps 747 mmHg 61%
    16:00 +26°C° 0.3 mm 5 mps 747 mmHg 60%
    17:00 +25°C° 0.1 mm 5 mps 747 mmHg 62%
    18:00 +23°C° 0.1 mm 4 mps 747 mmHg 65%
    19:00 +22°C° 0.1 mm 4 mps 747 mmHg 68%
    20:00 +21°C° 0 mm 3 mps 748 mmHg 72%
    21:00 +20°C° 0 mm 3 mps 749 mmHg 76%
    22:00 +18°C° 0 mm 2 mps 749 mmHg 81%
    23:00 +18°C° 0 mm 2 mps 749 mmHg 81%

    Day after tomorrow, 22 July, Monday

    Time Temperature Precipitation Wind Pressure Humidity
    00:00 +17°C° 0 mm 2 mps 750 mmHg 82%
    01:00 +17°C° 0 mm 2 mps 750 mmHg 83%
    02:00 +16°C° 0 mm 2 mps 750 mmHg 85%
    03:00 +16°C° 0 mm 2 mps 750 mmHg 87%
    04:00 +16°C° 0 mm 2 mps 750 mmHg 89%
    05:00 +17°C° 0 mm 2 mps 750 mmHg 85%
    06:00 +18°C° 0 mm 3 mps 750 mmHg 82%
    07:00 +19°C° 0 mm 3 mps 751 mmHg 78%
    08:00 +20°C° 0 mm 3 mps 751 mmHg 73%
    09:00 +21°C° 0 mm 4 mps 751 mmHg 68%
    10:00 +22°C° 0 mm 4 mps 751 mmHg 63%
    11:00 +23°C° 0 mm 4 mps 751 mmHg 60%
    12:00 +23°C° 0 mm 4 mps 751 mmHg 57%
    13:00 +25°C° 0 mm 5 mps 751 mmHg 54%
    14:00 +25°C° 0 mm 5 mps 751 mmHg 54%
    15:00 +25°C° 0 mm 5 mps 751 mmHg 54%
    16:00 +25°C° 0 mm 4 mps 751 mmHg 54%
    17:00 +23°C° 0 mm 4 mps 751 mmHg 58%
    18:00 +22°C° 0 mm 3 mps 751 mmHg 62%
    19:00 +21°C° 0 mm 2 mps 750 mmHg 66%
    20:00 +20°C° 0 mm 2 mps 751 mmHg 67%
    21:00 +19°C° 0 mm 2 mps 751 mmHg 68%
    22:00 +19°C° 0 mm 2 mps 751 mmHg 69%
    23:00 +18°C° 0 mm 2 mps 751 mmHg 73%

    23 July, Tuesday

    Time Temperature Precipitation Wind Pressure Humidity
    00:00 +17°C° 0 mm 2 mps 751 mmHg 77%
    01:00 +16°C° 0 mm 2 mps 751 mmHg 80%
    02:00 +15°C° 0 mm 2 mps 751 mmHg 81%
    03:00 +15°C° 0 mm 2 mps 751 mmHg 82%
    04:00 +14°C° 0 mm 2 mps 751 mmHg 83%
    05:00 +15°C° 0 mm 2 mps 751 mmHg 79%
    06:00 +16°C° 0 mm 2 mps 751 mmHg 76%
    07:00 +17°C° 0 mm 2 mps 751 mmHg 72%
    08:00 +18°C° 0 mm 2 mps 751 mmHg 70%
    09:00 +19°C° 0 mm 2 mps 751 mmHg 68%
    10:00 +19°C° 0 mm 2 mps 751 mmHg 65%
    11:00 +21°C° 0 mm 2 mps 751 mmHg 62%
    12:00 +24°C° 0 mm 2 mps 750 mmHg 59%
    13:00 +25°C° 0 mm 2 mps 750 mmHg 56%
    14:00 +26°C° 0 mm 2 mps 750 mmHg 55%
    15:00 +26°C° 0 mm 2 mps 750 mmHg 55%
    16:00 +27°C° 0 mm 2 mps 750 mmHg 54%
    17:00 +26°C° 0 mm 2 mps 750 mmHg 59%
    18:00 +25°C° 0 mm 2 mps 749 mmHg 64%
    19:00 +24°C° 0 mm 1 mps 749 mmHg 68%
    20:00 +23°C° 0 mm 1 mps 749 mmHg 74%
    21:00 +21°C° 0 mm 1 mps 749 mmHg 79%
    22:00 +19°C° 0 mm 1 mps 750 mmHg 84%
    23:00 +19°C° 0 mm 1 mps 749 mmHg 85%

    24 July, Wednesday

    Time Temperature Precipitation Wind Pressure Humidity
    00:00 +19°C° 0 mm 1 mps 749 mmHg 85%
    01:00 +19°C° 0 mm 1 mps 749 mmHg 86%
    02:00 +18°C° 0 mm 1 mps 749 mmHg 86%
    03:00 +18°C° 0 mm 1 mps 749 mmHg 87%
    04:00 +18°C° 0 mm 1 mps 749 mmHg 87%
    05:00 +20°C° 0 mm 1 mps 749 mmHg 81%
    06:00 +21°C° 0 mm 1 mps 749 mmHg 76%
    07:00 +21°C° 0 mm 0 mps 749 mmHg 71%
    08:00 +24°C° 0 mm 1 mps 749 mmHg 65%
    09:00 +26°C° 0 mm 1 mps 749 mmHg 59%
    10:00 +27°C° 0 mm 1 mps 749 mmHg 54%
    11:00 +28°C° 0 mm 1 mps 749 mmHg 49%
    12:00 +29°C° 0 mm 1 mps 749 mmHg 45%
    13:00 +30°C° 0 mm 1 mps 749 mmHg 41%
    14:00 +30°C° 0 mm 1 mps 749 mmHg 40%
    15:00 +31°C° 0 mm 1 mps 748 mmHg 39%
    16:00 +31°C° 0 mm 1 mps 748 mmHg 38%
    17:00 +29°C° 0 mm 1 mps 748 mmHg 45%
    18:00 +28°C° 0 mm 1 mps 748 mmHg 51%
    19:00 +26°C° 0 mm 1 mps 748 mmHg 57%
    20:00 +24°C° 0 mm 1 mps 748 mmHg 60%
    21:00 +23°C° 0 mm 1 mps 748 mmHg 63%
    22:00 +22°C° 0 mm 1 mps 749 mmHg 66%
    23:00 +21°C° 0 mm 1 mps 749 mmHg 69%

    25 July, Thursday

    Time Temperature Precipitation Wind Pressure Humidity
    00:00 +20°C° 0 mm 1 mps 749 mmHg 71%
    01:00 +20°C° 0 mm 1 mps 749 mmHg 74%
    02:00 +20°C° 0 mm 1 mps 749 mmHg 75%
    03:00 +19°C° 0 mm 1 mps 749 mmHg 76%
    04:00 +19°C° 0 mm 1 mps 748 mmHg 78%
    05:00 +21°C° 0 mm 1 mps 749 mmHg 74%
    06:00 +22°C° 0 mm 1 mps 749 mmHg 70%
    07:00 +24°C° 0 mm 1 mps 749 mmHg 66%
    08:00 +26°C° 0 mm 2 mps 749 mmHg 62%
    09:00 +27°C° 0 mm 2 mps 749 mmHg 59%
    10:00 +29°C° 0 mm 3 mps 749 mmHg 55%
    11:00 +29°C° 0 mm 3 mps 749 mmHg 52%
    12:00 +30°C° 0 mm 3 mps 749 mmHg 49%
    13:00 +31°C° 0 mm 3 mps 749 mmHg 46%
    14:00 +31°C° 0 mm 3 mps 749 mmHg 46%
    15:00 +31°C° 0 mm 3 mps 748 mmHg 46%
    16:00 +31°C° 0 mm 3 mps 748 mmHg 45%
    17:00 +30°C° 0 mm 3 mps 748 mmHg 51%
    18:00 +28°C° 0 mm 3 mps 748 mmHg 57%
    19:00 +27°C° 0 mm 3 mps 748 mmHg 63%
    20:00 +26°C° 0 mm 3 mps 748 mmHg 66%
    21:00 +24°C° 0 mm 3 mps 748 mmHg 70%
    22:00 +23°C° 0 mm 2 mps 748 mmHg 74%
    23:00 +21°C° 0 mm 2 mps 748 mmHg 76%
    Show more